| time (UTC) | temp C | wind direction | speed KPH | gust KPH | rain 1hr cm | rain 24hr cm | rain mn cm | humidity % | barometer mb |
| 20260503021515 | 13 | 342 | 0.0 | 0.0 | 0.00 | 0.00 | 0.00 | 68 | 1017.9 |
| 20260503020036 | 13 | 342 | 0.0 | 0.0 | 0.00 | 0.00 | 0.00 | 67 | 1018.0 |
| 20260503014507 | 13 | 343 | 0.0 | 0.0 | 0.00 | 0.00 | 0.00 | 67 | 1017.9 |
| 20260503013043 | 13 | 343 | 0.0 | 0.0 | 0.00 | 0.00 | 0.00 | 65 | 1017.9 |
| 20260503011604 | 14 | 343 | 0.0 | 0.0 | 0.00 | 0.00 | 0.00 | 66 | 1017.9 |
| 20260503010010 | 14 | 342 | 0.0 | 0.0 | 0.00 | 0.00 | 0.00 | 63 | 1018.1 |
| 20260503004515 | 14 | 342 | 0.0 | 0.0 | 0.00 | 0.00 | 0.00 | 63 | 1018.2 |
| 20260503003038 | 13 | 342 | 0.0 | 0.0 | 0.00 | 0.00 | 0.00 | 65 | 1018.2 |
| 20260503001601 | 13 | 342 | 0.0 | 0.0 | 0.00 | 0.00 | 0.00 | 64 | 1018.3 |
| 20260503000018 | 13 | 342 | 0.0 | 0.0 | 0.00 | 0.00 | 0.00 | 65 | 1018.4 |
| 20260502234538 | 13 | 342 | 0.0 | 0.0 | 0.00 | 0.00 | 0.00 | 67 | 1018.6 |
| 20260502233053 | 13 | 342 | 0.0 | 0.0 | 0.00 | 0.00 | 0.00 | 66 | 1018.7 |
| 20260502231519 | 14 | 342 | 0.0 | 0.0 | 0.00 | 0.00 | 0.00 | 66 | 1018.8 |
| 20260502230034 | 14 | 342 | 0.0 | 0.0 | 0.00 | 0.00 | 0.00 | 64 | 1018.8 |
| 20260502224600 | 15 | 342 | 0.0 | 0.0 | 0.00 | 0.00 | 0.00 | 62 | 1018.8 |
| 20260502223006 | 15 | 342 | 0.0 | 0.0 | 0.00 | 0.00 | 0.00 | 61 | 1018.9 |
| 20260502221534 | 15 | 342 | 0.0 | 0.0 | 0.00 | 0.00 | 0.00 | 60 | 1018.9 |
| 20260502220050 | 15 | 342 | 0.0 | 0.0 | 0.00 | 0.00 | 0.00 | 59 | 1019.0 |
| 20260502214526 | 16 | 342 | 0.0 | 0.0 | 0.00 | 0.00 | 0.00 | 59 | 1018.9 |
| 20260502213029 | 16 | 342 | 0.0 | 0.0 | 0.00 | 0.00 | 0.00 | 56 | 1018.9 |
| 20260502211554 | 16 | 342 | 0.0 | 0.0 | 0.00 | 0.00 | 0.00 | 55 | 1018.9 |
| 20260502210104 | 17 | 342 | 0.0 | 0.0 | 0.00 | 0.00 | 0.00 | 54 | 1019.0 |
| 20260502204533 | 17 | 342 | 0.0 | 0.0 | 0.00 | 0.00 | 0.00 | 54 | 1019.0 |
| 20260502203105 | 17 | 342 | 0.0 | 0.0 | 0.00 | 0.00 | 0.00 | 53 | 1019.1 |
| 20260502201511 | 17 | 342 | 0.0 | 0.0 | 0.00 | 0.00 | 0.00 | 51 | 1019.0 |
| 20260502200024 | 18 | 342 | 0.0 | 0.0 | 0.00 | 0.00 | 0.00 | 50 | 1019.1 |
| 20260502194559 | 18 | 342 | 0.0 | 0.0 | 0.00 | 0.00 | 0.00 | 49 | 1019.1 |
| 20260502193006 | 19 | 342 | 0.0 | 0.0 | 0.00 | 0.00 | 0.00 | 48 | 1019.1 |
| 20260502191531 | 20 | 342 | 0.0 | 0.0 | 0.00 | 0.00 | 0.00 | 47 | 1019.0 |
| 20260502190059 | 20 | 342 | 0.0 | 0.0 | 0.00 | 0.00 | 0.00 | 45 | 1018.9 |
| 20260502184520 | 20 | 342 | 0.0 | 0.0 | 0.00 | 0.00 | 0.00 | 44 | 1018.8 |
| 20260502183031 | 21 | 342 | 0.0 | 0.0 | 0.00 | 0.00 | 0.00 | 43 | 1018.7 |
| 20260502181548 | 21 | 342 | 0.0 | 0.0 | 0.00 | 0.00 | 0.00 | 42 | 1018.7 |
| 20260502180105 | 22 | 342 | 0.0 | 0.0 | 0.00 | 0.00 | 0.00 | 40 | 1018.6 |
| 20260502163115 | 24 | 11 | 0.0 | 4.8 | 0.00 | 0.00 | 0.00 | 35 | 1018.9 |
| 20260502161512 | 24 | 25 | 3.2 | 12.9 | 0.00 | 0.00 | 0.00 | 34 | 1019.1 |
| 20260502151522 | 25 | 355 | 1.6 | 12.9 | 0.00 | 0.00 | 0.00 | 33 | 1019.5 |
| 20260502123004 | 24 | 74 | 0.0 | 6.4 | 0.00 | 0.00 | 0.00 | 34 | 1021.5 |
| 20260502121531 | 24 | 9 | 0.0 | 9.7 | 0.00 | 0.00 | 0.00 | 33 | 1021.8 |
| 20260502120105 | 23 | 5 | 0.0 | 16.1 | 0.00 | 0.00 | 0.00 | 34 | 1021.9 |
| 20260502114506 | 23 | 35 | 0.0 | 1.6 | 0.00 | 0.00 | 0.00 | 34 | 1022.1 |
| 20260502113029 | 23 | 344 | 0.0 | 12.9 | 0.00 | 0.00 | 0.00 | 34 | 1022.4 |
| 20260502111543 | 23 | 350 | 0.0 | 9.7 | 0.00 | 0.00 | 0.00 | 35 | 1022.5 |
| 20260502110052 | 23 | 21 | 0.0 | 14.5 | 0.00 | 0.00 | 0.00 | 34 | 1022.7 |
| 20260502104518 | 22 | 57 | 1.6 | 14.5 | 0.00 | 0.00 | 0.00 | 35 | 1022.9 |
| 20260502103030 | 23 | 340 | 3.2 | 9.7 | 0.00 | 0.00 | 0.00 | 34 | 1023.1 |
| 20260502101603 | 22 | 333 | 1.6 | 12.9 | 0.00 | 0.00 | 0.00 | 35 | 1023.3 |
| 20260502091517 | 22 | 344 | 0.0 | 8.0 | 0.00 | 0.00 | 0.00 | 38 | 1023.8 |
| 20260502070110 | 15 | 61 | 0.0 | 0.0 | 0.00 | 0.00 | 0.00 | 56 | 1024.6 |
| 20260502064519 | 15 | 61 | 0.0 | 0.0 | 0.00 | 0.00 | 0.00 | 59 | 1024.6 |
| 20260502063040 | 14 | 70 | 0.0 | 0.0 | 0.00 | 0.00 | 0.00 | 60 | 1024.8 |
| 20260502061551 | 13 | 64 | 0.0 | 1.6 | 0.00 | 0.00 | 0.00 | 60 | 1024.7 |
| 20260502060013 | 13 | 16 | 0.0 | 0.0 | 0.00 | 0.00 | 0.00 | 62 | 1024.8 |
| 20260502054506 | 12 | 16 | 0.0 | 0.0 | 0.00 | 0.00 | 0.00 | 64 | 1024.7 |
| 20260502053018 | 11 | 15 | 0.0 | 0.0 | 0.00 | 0.00 | 0.00 | 67 | 1024.8 |
| 20260502051536 | 11 | 15 | 0.0 | 0.0 | 0.00 | 0.00 | 0.00 | 68 | 1024.8 |
| 20260502050048 | 10 | 355 | 0.0 | 0.0 | 0.00 | 0.00 | 0.00 | 70 | 1024.8 |
| 20260502044508 | 9 | 355 | 0.0 | 0.0 | 0.00 | 0.00 | 0.00 | 72 | 1024.7 |
| 20260502043027 | 9 | 355 | 0.0 | 0.0 | 0.00 | 0.00 | 0.00 | 72 | 1024.8 |
| 20260502041553 | 9 | 355 | 0.0 | 0.0 | 0.00 | 0.00 | 0.00 | 72 | 1024.7 |
| 20260502040002 | 9 | 355 | 0.0 | 0.0 | 0.00 | 0.00 | 0.00 | 72 | 1024.7 |
| 20260502034521 | 9 | 355 | 0.0 | 0.0 | 0.00 | 0.00 | 0.00 | 72 | 1024.7 |
| 20260502033033 | 9 | 355 | 0.0 | 0.0 | 0.00 | 0.00 | 0.00 | 72 | 1024.6 |
| 20260502031555 | 10 | 355 | 0.0 | 0.0 | 0.00 | 0.00 | 0.00 | 71 | 1024.6 |
| 20260502030010 | 10 | 355 | 0.0 | 0.0 | 0.00 | 0.00 | 0.00 | 69 | 1024.7 |
| 20260502024531 | 10 | 355 | 0.0 | 0.0 | 0.00 | 0.00 | 0.00 | 68 | 1024.7 |
| 20260502023055 | 10 | 355 | 0.0 | 0.0 | 0.00 | 0.00 | 0.00 | 66 | 1024.7 |